Home > Weather > Telfs > Past weeks

Flag for Austria Weather for the Past 2 Weeks in Telfs, Tyrol, Austria

Now
36 °F

Broken clouds.


Feels Like: 30 °F
Forecast: 30 / 38 °F
Wind: 7 mph from West

Location: Innsbruck-Flughafen

Current Time: Feb 9, 2016 at 8:46:24 AM

Latest Report: Feb 9, 2016 at 7:50 AM


Visibility: N/A

Pressure: 29.77 "Hg (27.53 "Hg at 630m altitude)

Humidity: 87%

Dew point: 32 °F

Location of TelfsLocation

Historic Weather in Telfs — Graph

°F

Telfs Temperature Yesterday

Maximum temperature yesterday: 52 °F (at 2:50 PM)
Minimum temperature yesterday: 36 °F (at 7:50 AM)
Average temperature yesterday: 43 °F

High & Low Weather Summary for the Past Weeks

 TemperatureHumidityPressure
High57 °F (Feb 1, 1:50 PM)100% (Jan 25, 9:50 PM)30.51 "Hg (Jan 25, 9:50 PM)
Low25 °F (Jan 27, 4:20 AM)41% (Jan 30, 2:20 PM)29.71 "Hg (Feb 7, 1:50 PM)
Average38 °F84%30.18 "Hg
* Reported Jan 25 6:20 AM — Feb 9 6:50 AM, Telfs, Weather by CustomWeather, © 2016

Note: Actual official high and low records may vary slightly from our data, if they occured in-between our weather recording intervals... More about our weather records

Advertising

Telfs Weather History for the Previous 24 Hours

 ConditionsComfort  
Time TempWeatherWind HumidityBarometerVisibility
6:50 AM
Tue, Feb 9
36 °FPassing clouds.3 mph87%29.80 "HgN/A
6:20 AM37 °FPassing clouds.8 mph87%29.80 "HgN/A
5:50 AM36 °FPassing clouds.7 mph93%29.80 "HgN/A
5:20 AM36 °FPassing clouds.5 mph93%29.80 "HgN/A
4:50 AM37 °FPassing clouds.6 mph87%29.80 "HgN/A
4:20 AM37 °FChilly.6 mph81%29.80 "HgN/A
3:50 AM39 °FPassing clouds.5 mph81%29.80 "HgN/A
3:20 AM41 °FPassing clouds.3 mph76%29.80 "HgN/A
2:50 AM41 °FPassing clouds.5 mph76%29.83 "HgN/A
2:20 AM39 °FPassing clouds.5 mph87%29.83 "HgN/A
1:50 AM43 °FPartly cloudy.7 mph76%29.83 "HgN/A
1:20 AM43 °FPassing clouds.8 mph76%29.80 "Hg6 mi
12:50 AM41 °FPassing clouds.5 mph81%29.80 "HgN/A
11:50 PM
Mon, Feb 8
43 °FPassing clouds.3 mph81%29.80 "HgN/A
11:20 PM43 °FPassing clouds.10 mph81%29.80 "HgN/A
10:50 PM43 °FPassing clouds.9 mph76%29.80 "HgN/A
10:20 PM45 °FPartly cloudy.10 mph71%29.80 "HgN/A
9:50 PM45 °FPassing clouds.3 mph71%29.80 "HgN/A
9:20 PM48 °FPassing clouds.6 mph58%29.77 "HgN/A
8:50 PM50 °FPartly cloudy.7 mph54%29.77 "HgN/A
8:20 PM45 °FPartly cloudy.6 mph76%29.80 "HgN/A
7:50 PM45 °FPartly cloudy.9 mph71%29.80 "HgN/A
7:20 PM45 °FPartly cloudy.5 mph71%29.77 "HgN/A
6:50 PM45 °FPartly cloudy.3 mph71%29.74 "HgN/A
6:20 PM45 °FPassing clouds.5 mph71%29.74 "HgN/A
5:50 PM48 °FPassing clouds.6 mph62%29.71 "HgN/A
5:20 PM46 °FPartly sunny.6 mph76%29.71 "HgN/A
4:50 PM50 °FPartly sunny.5 mph67%29.71 "HgN/A
4:20 PM52 °FBroken clouds.12 mph54%29.71 "HgN/A
3:50 PM52 °FBroken clouds.2 mph58%29.71 "HgN/A
3:20 PM52 °FBroken clouds.7 mph62%29.74 "HgN/A
2:50 PM52 °FPartly sunny.9 mph62%29.74 "HgN/A
2:20 PM50 °FPartly sunny.13 mph67%29.74 "HgN/A
1:50 PM50 °FPartly sunny.15 mph67%29.74 "HgN/A
1:20 PM48 °FPartly sunny.13 mph71%29.74 "HgN/A
12:50 PM46 °FBroken clouds.14 mph76%29.77 "HgN/A
12:20 PM45 °FBroken clouds.10 mph76%29.80 "HgN/A
11:50 AM45 °FBroken clouds.15 mph81%29.83 "HgN/A
11:20 AM43 °FBroken clouds.14 mph81%29.83 "HgN/A
10:50 AM41 °FBroken clouds.13 mph87%29.86 "HgN/A
10:20 AM41 °FScattered clouds.13 mph81%29.86 "HgN/A
9:50 AM41 °FBroken clouds.6 mph81%29.86 "HgN/A
9:20 AM39 °FScattered clouds.2 mph87%29.89 "HgN/A
8:50 AM37 °FBroken clouds.5 mph100%29.89 "Hg5 mi
8:20 AM37 °FBroken clouds.8 mph93%29.89 "Hg5 mi
Weather by CustomWeather, © 2016

See weather overviewHow to use our weather pages